Location: Trebic
(49.2170°N, 15.8830°E)
Time: 12:04:21
(UTC+02:00)

Transit 2A Rocket - Pass Details

Date: 28 July 2019
Orbit: 590 x 913 km, 66.7° (Epoch: 19 August)

Event Time Altitude Azimuth Distance (km) Brightness Sun altitude
Rises 05:51:56 0° 289° (WNW) 3,410 7.9 3.4°
Reaches altitude 10° 05:55:51 10° 314° (NW) 2,406 7.4 3.9°
Maximum altitude 05:58:34 14° 344° (NNW) 2,106 7.4 4.4°
Drops below altitude 10° 06:01:12 10° 14° (NNE) 2,300 8.1 4.7°
Sets 06:04:48 0° 41° (NE) 3,145 9.5 5.3°
